Voltar ao catálogo

TITAN 3C TRANSTAGE DEB

AtivoHEO
NORAD 26781·DEBRIS·🇺🇸 United States

Lançado Dec 21, 1965 de Cape Canaveral Space Force Station

Loading…

Próximas Passagens (próximas 24 horas)

TLE

AtualizadoSource: Space-Track

Época: Sep 13, 2026, 01:03 UTC

1 26781U 65108AZ  26256.04394266  .00003479  00000-0  83305-2 0  9993
2 26781  27.2413 246.4269 6291367 262.7872  26.6378  3.46567256 85904

Acompanhe TITAN 3C TRANSTAGE DEB em tempo real com AllMySat

Download on the App Store